Location: Gülübeli Geçidi
(36.8411°N, 29.7411°E)
Time: 11:38:23
(UTC+00:00)

SL-4 R/B - Pass Details

Date: 15 May 2026
Orbit: 379 x 503 km, 51.6° (Epoch: 6 June)

Event Time Altitude Azimuth Distance (km) Brightness Sun altitude
Rises 17:38:57 0° 297° (WNW) 2,547 8.0 -7.4°
Reaches altitude 10° 17:41:26 10° 282° (WNW) 1,682 5.9 -7.8°
Maximum altitude 17:44:25 22° 230° (SW) 1,130 3.8 -8.4°
Drops below altitude 10° 17:47:26 10° 179° (S) 1,703 4.2 -8.9°
Enters shadow 17:49:00 - 168° (SSE) 2,235 4.7 -9.1°
